"Time","Temp","Dewpoint","Humidity","Pressure","Direction","Speed","Gust","Precip","PrecipRate"
"00:04:56","61.7","59","91","29.99","327","0.4","2.3","0.00","0.00"
"00:09:56","61.6","58.9","91","29.99","327","0.4","2.3","0.00","0.00"
"00:14:59","61.6","58.9","91","29.99","327","0","2.3","0.00","0.00"
"00:19:56","61.5","58.8","91","29.99","327","0.1","1.2","0.00","0.00"
"00:24:58","61.4","58.7","91","29.99","327","0","1.2","0.00","0.00"
"00:29:59","61.4","58.7","91","29.99","327","0","0","0.00","0.00"
"00:34:57","61.2","58.6","91","29.99","327","0.2","1.2","0.00","0.00"
"00:39:56","61.1","58.7","91.7","29.99","327","0","0","0.00","0.00"
"00:44:58","61","58.7","92","29.99","327","0","0","0.00","0.00"
"00:49:56","60.8","58.5","91.9","29.99","327","0","0","0.00","0.00"
"00:54:57","60.7","58.3","91.6","29.99","327","0","0","0.00","0.00"
"00:59:59","60.5","58.2","92","29.99","327","0","0","0.00","0.00"
"01:04:56","60.4","58.2","92.2","29.98","327","0","0","0.00","0.00"
"01:09:58","60.4","58.4","93","29.98","327","0","0","0.00","0.00"
"01:14:57","60.3","58.2","92.7","29.98","327","0","0","0.00","0.00"
"01:19:59","60.2","57.9","92","29.98","327","0","0","0.00","0.00"
"01:24:56","60.1","58.1","93","29.98","327","0.2","2","0.00","0.00"
"01:29:58","60.1","58.3","93.6","29.98","327","0.6","3","0.00","0.00"
"01:34:58","60.2","58.5","94","29.98","327","0.8","3.5","0.00","0.00"
"01:39:57","60.2","58.2","93.1","29.98","327","0","0","0.00","0.00"
"01:44:59","60.1","58.1","93","29.98","327","0","0","0.00","0.00"
"01:49:57","60","58","93","29.98","327","0","0","0.00","0.00"
"01:54:59","59.9","58","93.5","29.98","327","0","0","0.00","0.00"
"01:59:57","59.8","58.1","93.8","29.98","327","0","0","0.00","0.00"
"02:04:58","59.8","58.1","94","29.98","327","0","0","0.00","0.00"
"02:09:56","59.8","58.1","94","29.98","327","0","0","0.00","0.00"
"02:14:56","59.7","58","94","29.98","327","0","0","0.00","0.00"
"02:19:57","59.7","58","94","29.98","327","0","0","0.00","0.00"
"02:24:59","59.7","58","94","29.98","327","0","0","0.00","0.00"
"02:29:57","59.6","57.9","94","29.98","327","0","0","0.00","0.00"
"02:34:59","59.6","57.9","94","29.97","327","0","0","0.00","0.00"
"02:39:58","59.4","57.7","94","29.97","327","0","0","0.00","0.00"
"02:44:56","59.3","57.6","94","29.97","327","0","0","0.00","0.00"
"02:49:58","59.3","57.7","94.3","29.97","327","0","0","0.00","0.00"
"02:54:59","59.2","57.5","94","29.97","327","0","0","0.00","0.00"
"02:59:58","59.1","57.4","94","29.97","327","0","0","0.00","0.00"
"03:04:59","59","57.3","94.3","29.97","327","0","0","0.00","0.00"
"03:09:57","58.8","57.3","94.7","29.97","327","0","0","0.00","0.00"
"03:14:57","58.7","57.3","95","29.97","327","0","0","0.00","0.00"
"03:19:59","58.7","57.3","95","29.97","327","0","0","0.00","0.00"
"03:24:56","58.6","57.2","95","29.97","327","0","0","0.00","0.00"
"03:29:59","58.5","57.1","95","29.97","327","0","0","0.00","0.00"
"03:34:57","58.5","57.1","95.1","29.97","327","0","0","0.00","0.00"
"03:39:56","58.5","57.1","95.1","29.97","327","0","0","0.00","0.00"
"03:44:58","58.4","57","95","29.97","327","0","0","0.00","0.00"
"03:49:56","58.3","56.9","95","29.97","327","0","0","0.00","0.00"
"03:54:57","58.2","56.8","95","29.97","327","0","0","0.00","0.00"
"03:59:56","58.2","56.9","95.3","29.97","327","0","0","0.00","0.00"
"04:04:57","58.2","57","95.7","29.97","327","0","0","0.00","0.00"
"04:09:59","58.1","56.7","95","29.97","327","0","0","0.00","0.00"
"04:14:58","58","56.8","95.6","29.97","327","0","0","0.00","0.00"
"04:19:56","58","56.9","96","29.97","327","0","0","0.00","0.00"
"04:24:57","58","56.9","96","29.97","327","0","0","0.00","0.00"
"04:29:56","58","56.9","96","29.97","327","0","0","0.00","0.00"
"04:34:58","58","56.9","96","29.97","327","0","0","0.00","0.00"
"04:39:21","57.9","56.8","96","29.97","327","0","0","0.00","0.00"
"04:44:59","57.8","56.7","96","29.97","327","0","0","0.00","0.00"
"04:49:57","57.8","56.7","96","29.97","327","0","0","0.00","0.00"
"04:54:59","57.7","56.6","96","29.97","327","0","0","0.00","0.00"
"04:59:57","57.8","56.7","96","29.97","327","0","0","0.00","0.00"
"05:04:58","57.8","56.7","96","29.97","327","0","0","0.00","0.00"
"05:09:56","57.8","56.7","96","29.97","327","0","0","0.00","0.00"
"05:14:59","57.7","56.6","96","29.98","327","0","0","0.00","0.00"
"05:19:57","57.7","56.6","96","29.98","327","0","0","0.00","0.00"
"05:24:59","57.7","56.6","96","29.98","327","0","0","0.00","0.00"
"05:29:57","57.7","56.7","96.4","29.98","327","0","0","0.00","0.00"
"05:34:58","57.9","57.1","97","29.98","327","0","0","0.00","0.00"
"05:39:57","58.1","57.3","97","29.98","327","0","0","0.00","0.00"
"05:44:59","58.1","57.1","96.3","29.99","327","0","0","0.00","0.00"
"05:49:57","58","57","96.2","29.99","327","0","0","0.00","0.00"
"05:54:38","58","57","96.2","29.99","327","0","0","0.00","0.00"
"05:59:57","58","56.9","96","29.99","327","0","0","0.00","0.00"
"06:04:58","58","56.9","96","29.99","327","0","0","0.00","0.00"
"06:09:57","57.9","56.8","96","29.99","327","0","0","0.00","0.00"
"06:14:56","57.8","56.7","96","29.99","327","0","0","0.00","0.00"
"06:19:58","57.8","56.7","96","29.99","327","0","0","0.00","0.00"
"06:24:56","57.8","56.7","96","29.99","327","0","0","0.00","0.00"
"06:29:58","57.7","56.6","96","29.99","327","0","0","0.00","0.00"
"06:34:56","57.6","56.5","96.1","29.99","327","0","0","0.00","0.00"
"06:39:56","57.6","56.8","97","29.99","327","0","0","0.00","0.00"
"06:44:58","57.7","56.9","97","29.99","327","0","0","0.00","0.00"
"06:49:59","57.7","56.9","97","29.99","327","0","0","0.00","0.00"
"06:54:57","57.9","57.1","97","29.99","327","0","0","0.00","0.00"
"06:59:59","58","57.2","97","30.00","327","0","0","0.00","0.00"
"07:04:56","58.1","57.3","97","30.00","327","0","0","0.00","0.00"
"07:09:58","58.2","57.4","97","30.00","327","0","0","0.00","0.00"
"07:14:57","58.5","57.7","97","30.01","327","0","0","0.00","0.00"
"07:19:58","59","58.2","97.2","30.01","327","0","0","0.00","0.00"
"07:24:56","59.3","58.4","97","30.01","327","0","0","0.00","0.00"
"07:29:57","59.5","58.6","97","30.01","327","0","0","0.00","0.00"
"07:34:59","59.7","58.8","97","30.01","327","0","0","0.00","0.00"
"07:39:58","59.9","58.8","96.2","30.01","327","0","0","0.00","0.00"
"07:44:56","60.1","59.2","97","30.01","327","0","0","0.00","0.00"
"07:49:57","60.4","59.4","96.7","30.01","327","0","0","0.00","0.00"
"07:54:58","60.7","59.8","97","30.01","327","0","0","0.00","0.00"
"07:59:57","61.1","60.2","96.8","30.01","327","0.1","2","0.00","0.00"
"08:04:58","61.6","60.3","95.7","30.01","327","1","4","0.00","0.00"
"08:09:56","62.1","60.5","94.4","30.01","328","1","3.5","0.00","0.00"
"08:14:59","62.7","60.6","92.8","30.01","304","1.7","4","0.00","0.00"
"08:19:56","63.3","60.7","91.4","30.01","318","2","4","0.00","0.00"
"08:24:58","63.8","61","90.6","30.01","321","1.9","5","0.00","0.00"
"08:29:56","64.3","61.1","89.3","30.01","322","1.5","3.5","0.00","0.00"
"08:34:57","64.9","61.4","88.5","30.01","326","1.1","4","0.00","0.00"
"08:39:56","65.4","61.7","87.7","30.01","280","1.3","4","0.00","0.00"
"08:44:58","66.1","62","86.8","30.01","279","1","4","0.00","0.00"
"08:49:59","66.6","62.2","85.8","30.01","312","1.6","5","0.00","0.00"
"08:54:28","67.1","62.2","84.2","30.01","5","1.6","4.6","0.00","0.00"
"08:59:58","67.6","62.5","83.8","30.01","3","1.8","6","0.00","0.00"
"09:04:59","68.2","62.7","82.6","30.00","351","1.5","3.5","0.00","0.00"
"09:09:57","68.6","62.6","81.3","30.00","274","1.6","4","0.00","0.00"
"09:14:57","69.1","63","80.9","30.00","285","1.6","5","0.00","0.00"
"09:19:54","69.5","62.9","79.4","30.00","313","1.5","4.6","0.00","0.00"
"09:24:59","69.9","63","78.8","30.00","314","1.3","4","0.00","0.00"
"09:29:57","70.2","63.6","79.4","30.00","315","0.5","3","0.00","0.00"
"09:34:59","70.6","63.4","78","30.00","316","2.1","4","0.00","0.00"
"09:39:58","70.9","64.1","79.4","30.00","322","0.6","5","0.00","0.00"
"09:44:59","71.3","64.1","78","30.00","248","1","3.5","0.00","0.00"
"09:49:57","71.7","64.3","77.3","30.00","249","1.1","3.5","0.00","0.00"
"09:54:58","72.3","64.6","76.8","30.00","250","1","3.5","0.00","0.00"
"09:59:56","72.8","64.6","75.5","30.00","296","1.6","5","0.00","0.00"
"10:04:57","73.2","64.4","74","30.00","344","1.4","4.6","0.00","0.00"
"10:09:59","73.4","64.6","74.1","30.00","343","1.7","6","0.00","0.00"
"10:14:58","73.7","64.5","73.1","30.00","341","2.3","5.8","0.00","0.00"
"10:19:59","73.9","64.6","72.5","30.00","334","1.7","6","0.00","0.00"
"10:24:57","74.2","64.2","71","30.00","325","3.3","7","0.00","0.00"
"10:29:58","74.2","64.5","71.8","30.00","249","2.6","6","0.00","0.00"
"10:34:56","74.3","64.6","71.7","30.00","326","2.3","5.8","0.00","0.00"
"10:39:59","74.7","64.9","71.4","30.00","301","2.3","5","0.00","0.00"
"10:44:56","75.1","65.2","71.4","30.00","342","2.8","7","0.00","0.00"
"10:49:57","75.4","65.3","71","30.00","326","2.7","7","0.00","0.00"
"10:54:59","75.7","65.6","71","30.00","337","2.9","9.2","0.00","0.00"
"10:59:57","75.8","65","69.2","30.00","332","2.7","8.1","0.00","0.00"
"11:04:57","75.8","64.8","68.6","30.00","317","2.6","5.8","0.00","0.00"
"11:09:59","76","65.2","69.4","30.00","297","2.5","6","0.00","0.00"
"11:14:58","76.5","65.2","68.3","30.00","334","1.7","8","0.00","0.00"
"11:19:56","76.8","64.7","66.3","30.00","343","2.7","8.1","0.00","0.00"
"11:24:57","77","65.7","68.2","30.00","352","1.7","6.9","0.00","0.00"
"11:29:59","77.4","65.5","66.9","30.00","343","3","7","0.00","0.00"
"11:34:57","77.6","65.8","67","30.00","230","2.4","5","0.00","0.00"
"11:39:56","78.1","66.4","67.4","30.00","268","1.9","5","0.00","0.00"
"11:44:57","78.4","65.5","64.6","30.00","325","2.3","10","0.00","0.00"
"11:49:59","78.4","64.9","63.2","29.99","230","2.2","4.6","0.00","0.00"
"11:54:56","78.2","64.6","63","29.99","256","2.2","4","0.00","0.00"
"11:59:58","78.3","65","63.7","29.99","247","1.5","4","0.00","0.00"
"12:04:59","78.7","65.1","63.2","29.99","211","2.1","5","0.00","0.00"
"12:09:58","78.9","65.4","63.3","29.99","286","2.1","6","0.00","0.00"
"12:14:59","79","64","60.2","29.99","295","3.4","8.1","0.00","0.00"
"12:19:57","79.3","64.4","60.4","29.99","333","2.1","5.8","0.00","0.00"
"12:24:57","79.7","65.7","62.5","29.99","249","2.3","7","0.00","0.00"
"12:29:56","80.3","66.3","62.6","29.99","320","2.3","6","0.00","0.00"
"12:34:58","80.3","64.4","58.4","29.99","279","2.7","5","0.00","0.00"
"12:39:59","80","64.9","59.9","29.99","252","3.1","6","0.00","0.00"
"12:44:58","80","64.7","59.5","29.99","344","2.9","7","0.00","0.00"
"12:49:56","80.1","65.2","60.4","29.99","289","2.4","5.8","0.00","0.00"
"12:54:58","80.3","65.3","60.2","29.99","202","1.7","4","0.00","0.00"
"12:59:58","80.6","65.8","60.9","29.99","326","1.3","4","0.00","0.00"
"13:04:56","81","65.9","60.2","29.99","288","2.7","7","0.00","0.00"
"13:09:59","80.9","65.4","59.4","29.99","319","2.2","7","0.00","0.00"
"13:14:59","80.8","65.1","58.9","29.99","343","2.7","7","0.00","0.00"
"13:19:58","80.8","65","58.8","29.99","258","1.5","5","0.00","0.00"
"13:24:57","81.1","65.1","58.4","29.99","230","3.2","9","0.00","0.00"
"13:29:56","81.3","65","58","29.99","229","3.1","9.2","0.00","0.00"
"13:34:59","81.4","65.1","57.8","29.99","243","2.6","7","0.00","0.00"
"13:39:59","81.6","64.9","57.1","29.99","324","2.5","6","0.00","0.00"
"13:44:58","81.7","65.7","58.5","29.99","296","2.4","6","0.00","0.00"
"13:49:56","82.1","65.5","57.3","29.98","195","3","6","0.00","0.00"
"13:54:59","82.3","65.1","56.2","29.98","220","2.6","6","0.00","0.00"
"13:59:58","82.2","62.7","51.8","29.98","215","2.6","6","0.00","0.00"
"14:04:56","82.3","63.3","52.7","29.98","212","2.3","4","0.00","0.00"
"14:09:59","82.7","63.5","52.3","29.98","339","2","6","0.00","0.00"
"14:14:59","82.9","64.4","53.7","29.98","323","2.1","7","0.00","0.00"
"14:19:58","83.1","64","52.7","29.98","298","2.7","6.9","0.00","0.00"
"14:24:56","83.3","63.1","50.8","29.98","350","2.6","10.4","0.00","0.00"
"14:29:59","83.5","63.9","51.9","29.98","342","2.4","6","0.00","0.00"
"14:34:58","83.6","64.1","51.9","29.98","246","2.4","10","0.00","0.00"
"14:39:58","83.4","63.6","51.4","29.98","286","3.3","10.4","0.00","0.00"
"14:44:57","83.1","63.1","51.1","29.98","331","2.6","7","0.00","0.00"
"14:49:59","83","63.1","51.2","29.97","349","2.6","9.2","0.00","0.00"
"14:54:58","83.1","63.8","52.3","29.97","256","1.6","6","0.00","0.00"
"14:59:57","83","63.1","51.1","29.97","234","0.6","6","0.00","0.00"
"15:04:59","83.1","64.2","52.9","29.97","312","2.6","9.2","0.00","0.00"
"15:09:58","83.7","64.3","52.1","29.97","337","2.7","10.4","0.00","0.00"
"15:14:58","84.2","65.2","52.9","29.97","355","1.6","7","0.00","0.00"
"15:19:57","84.3","63.2","49.2","29.96","275","3.2","6.9","0.00","0.00"
"15:24:59","84","64.5","52","29.96","318","1.8","9.2","0.00","0.00"
"15:29:58","84.1","63.2","49.6","29.96","296","1.8","4","0.00","0.00"
"15:34:57","84","63.5","50.4","29.96","237","1.6","4","0.00","0.00"
"15:39:57","84.1","63.5","50.1","29.96","292","1.6","7","0.00","0.00"
"15:44:56","84.4","64.9","52.1","29.96","304","1.9","6","0.00","0.00"
"15:49:58","84.7","64.4","50.7","29.96","234","2.5","7","0.00","0.00"
"15:54:57","84.6","64.5","51.1","29.96","213","3","6","0.00","0.00"
"15:59:56","84.6","63.8","49.8","29.96","225","1.4","3.5","0.00","0.00"
"16:04:58","84.6","63.3","49","29.96","291","2.2","6","0.00","0.00"
"16:09:57","84.3","63","49","29.96","276","1.9","6","0.00","0.00"
"16:14:57","84","64","51.1","29.96","1","1.6","4","0.00","0.00"
"16:19:56","84.4","64.8","51.9","29.96","338","2.5","6","0.00","0.00"
"16:24:55","84.7","64.6","51","29.96","257","1.5","4","0.00","0.00"
"16:29:59","84.8","64.4","50.5","29.96","256","1.8","4","0.00","0.00"
"16:34:57","84.6","64.3","50.6","29.96","246","2","6","0.00","0.00"
"16:39:57","84.7","65.1","52","29.96","223","0.8","3.5","0.00","0.00"
"16:44:56","85.1","64","49.3","29.96","300","1.1","5","0.00","0.00"
"16:49:58","85.2","64.3","49.7","29.96","350","2.9","10.4","0.00","0.00"
"16:54:57","85.1","64.1","49.6","29.96","346","2.6","6","0.00","0.00"
"16:59:56","84.9","64.5","50.6","29.96","349","2.1","6","0.00","0.00"
"17:04:58","84.7","63.8","49.7","29.95","335","2","8.1","0.00","0.00"
"17:09:58","84.3","63.5","49.8","29.95","333","1.7","6","0.00","0.00"
"17:14:56","84.4","63.6","49.7","29.96","343","1.7","6","0.00","0.00"
"17:19:57","84.4","63.2","49.1","29.96","344","0.5","3.5","0.00","0.00"
"17:24:57","84.4","63.7","50","29.96","236","2.4","5","0.00","0.00"
"17:29:59","84.4","63","48.6","29.96","254","1.4","3.5","0.00","0.00"
"17:34:59","84.4","63.1","49","29.96","259","1.5","4","0.00","0.00"
"17:39:57","84.7","64","50.1","29.96","333","2","5","0.00","0.00"
"17:44:58","84.8","63.4","48.8","29.96","354","1.5","5","0.00","0.00"
"17:49:59","84.8","63.4","48.9","29.96","346","1.9","4.6","0.00","0.00"
"17:54:56","84.8","63.1","48.3","29.96","346","1.4","4","0.00","0.00"
"17:59:57","85","63.2","48.2","29.96","346","1","3.5","0.00","0.00"
"18:04:56","85.1","63.1","47.9","29.96","346","1.2","4","0.00","0.00"
"18:09:56","85.1","63.7","48.8","29.96","346","1.1","3.5","0.00","0.00"
"18:14:59","85.1","63.9","49.1","29.96","346","0.7","2.3","0.00","0.00"
"18:19:58","84.8","63.1","48.3","29.96","346","1.4","5","0.00","0.00"
"18:24:57","84.4","62.8","48.5","29.96","346","1.1","3.5","0.00","0.00"
"18:29:56","83.9","62.7","49","29.96","346","0.9","2.3","0.00","0.00"
"18:34:59","83.5","63.1","50.4","29.96","344","1.2","2.3","0.00","0.00"
"18:39:59","83.3","62.6","49.8","29.96","290","1.9","5","0.00","0.00"
"18:44:58","83.1","63","50.7","29.96","171","0.6","3.5","0.00","0.00"
"18:49:57","82.7","61.7","49.2","29.96","171","0.4","2.3","0.00","0.00"
"18:54:59","82.4","62.3","50.7","29.96","171","0.6","2.3","0.00","0.00"
"18:59:59","82","61.8","50.3","29.96","171","0.5","4","0.00","0.00"
"19:04:57","81.8","61.7","50.7","29.95","171","0.5","3.5","0.00","0.00"
"19:09:56","81.6","63.6","54.6","29.95","171","0.3","2.3","0.00","0.00"
"19:14:56","81","65.5","59.3","29.95","171","0","0","0.00","0.00"
"19:19:59","80.4","66.1","61.9","29.95","171","0.5","2.3","0.00","0.00"
"19:24:57","79.6","65.2","61.5","29.95","171","0.5","2.3","0.00","0.00"
"19:29:56","78.8","64.8","62.3","29.96","171","0.5","2.3","0.00","0.00"
"19:34:50","78.1","64.4","62.8","29.96","171","0.6","3.5","0.00","0.00"
"19:39:57","77.6","63.8","62.7","29.96","171","0","3.5","0.00","0.00"
"19:44:59","77.2","64.2","64.4","29.97","171","0.1","1.2","0.00","0.00"
"19:49:57","76.6","64.8","66.8","29.97","172","0","0","0.00","0.00"
"19:54:59","76.1","65","68.4","29.97","172","0","0","0.00","0.00"
"19:59:58","75.5","64.7","69.2","29.97","172","0","0","0.00","0.00"
"20:04:59","74.9","64.5","70.1","29.97","172","0","0","0.00","0.00"
"20:09:57","74.3","64.4","71.1","29.97","172","0","0","0.00","0.00"
"20:14:57","73.9","64.3","72","29.97","172","0","0","0.00","0.00"
"20:19:58","73.4","64.3","73.3","29.97","172","0.2","1.2","0.00","0.00"
"20:24:57","73.2","64.4","74","29.97","172","0","0","0.00","0.00"
"20:29:59","73","64.2","74","29.97","172","0","0","0.00","0.00"
"20:34:57","72.7","64.2","74.8","29.97","172","0","0","0.00","0.00"
"20:39:57","72.3","64.3","76","29.97","172","0","0","0.00","0.00"
"20:44:59","71.9","64.2","77","29.98","172","0","0","0.00","0.00"
"20:49:56","71.5","63.9","77","29.98","172","0","0","0.00","0.00"
"20:54:58","71.1","64.1","78.5","29.98","172","0","0","0.00","0.00"
"20:59:28","70.9","64.1","79","29.99","172","0","0","0.00","0.00"
"21:04:58","70.4","63.4","78.3","29.99","172","0","0","0.00","0.00"
"21:09:56","70.1","63.4","79.3","29.99","172","0","0","0.00","0.00"
"21:14:59","69.8","63.4","80.5","29.99","172","0","0","0.00","0.00"
"21:19:57","69.5","63.4","81","29.99","172","0","0","0.00","0.00"
"21:24:59","69.3","63.6","82.3","29.99","172","0","0","0.00","0.00"
"21:29:58","69.2","64.4","84.6","30.00","172","0","0","0.00","0.00"
"21:34:56","69.2","64.4","84.8","30.00","172","0","0","0.00","0.00"
"21:39:59","68.9","63.6","83.3","30.00","172","0","0","0.00","0.00"
"21:44:57","68.6","63.4","83.5","30.00","172","0","0","0.00","0.00"
"21:49:59","68.3","63.3","84","30.00","172","0","0","0.00","0.00"
"21:54:57","68.1","63.4","84.9","30.00","172","0","0","0.00","0.00"
"21:59:56","68.1","64","86.9","30.01","172","0","0","0.00","0.00"
"22:04:57","68.1","64.1","87","30.01","172","0","0","0.00","0.00"
"22:09:59","68","64","87","30.01","172","0","0","0.00","0.00"
"22:14:59","67.8","63.8","87","30.01","172","0","0","0.00","0.00"
"22:19:57","67.6","63.6","87","30.01","172","0","0","0.00","0.00"
"22:24:59","67.4","63.6","87.8","30.01","172","0","0","0.00","0.00"
"22:29:58","67.2","63.6","88.1","30.01","172","0","0","0.00","0.00"
"22:34:56","67.2","63.8","89","30.01","172","0","0","0.00","0.00"
"22:39:59","67.2","63.8","89","30.01","172","0","0","0.00","0.00"
"22:44:57","67.2","63.8","89","30.02","172","0","0","0.00","0.00"
"22:49:58","67.1","63.7","89","30.02","172","0","0","0.00","0.00"
"22:54:56","67","63.8","89.3","30.02","172","0","0","0.00","0.00"
"22:59:59","66.8","63.4","88.9","30.02","172","0","0","0.00","0.00"
"23:04:56","66.5","62.8","88.2","30.02","172","0","0","0.00","0.00"
"23:09:58","66.2","62.9","89","30.02","172","0","0","0.00","0.00"
"23:14:57","65.9","62.6","89","30.02","172","0","0","0.00","0.00"
"23:19:47","65.8","62.6","89.3","30.01","172","0","0","0.00","0.00"
"23:24:57","65.6","62.7","90.2","30.01","172","0","0","0.00","0.00"
"23:29:59","65.6","62.9","91","30.02","172","0","0","0.00","0.00"
"23:34:57","65.6","62.9","91","30.02","172","0","0","0.00","0.00"
"23:39:56","65.6","63","91.2","30.02","172","0","0","0.00","0.00"
"23:44:59","65.6","62.9","91","30.02","172","0","0","0.00","0.00"
"23:49:56","65.4","62.7","91","30.02","172","0","0","0.00","0.00"
